owner,sensor,date,latitude,longitude,vertical_datum,sea_water_temperature,qcFlag 
TABS,ioos:station:wmo:42048:1,2009-12-01T00:00:00Z,27.9396,-96.8429,-2.0,19.01,11111222 
TABS,ioos:station:wmo:42048:1,2009-12-01T00:30:00Z,27.9396,-96.8429,-2.0,18.99,11111222 
TABS,ioos:station:wmo:42048:1,2009-12-01T01:00:00Z,27.9396,-96.8429,-2.0,18.97,11111222 
TABS,ioos:station:wmo:42048:1,2009-12-01T01:30:00Z,27.9396,-96.8429,-2.0,18.96,11111222 
TABS,ioos:station:wmo:42048:1,2009-12-01T02:00:00Z,27.9396,-96.8429,-2.0,18.94,11111222 
TABS,ioos:station:wmo:42048:1,2009-12-01T02:30:00Z,27.9396,-96.8429,-2.0,18.95,11111222 
TABS,ioos:station:wmo:42048:1,2009-12-01T03:00:00Z,27.9396,-96.8429,-2.0,18.96,11111222 
TABS,ioos:station:wmo:42048:1,2009-12-01T03:30:00Z,27.9396,-96.8429,-2.0,18.94,11111222 
TABS,ioos:station:wmo:42048:1,2009-12-01T04:00:00Z,27.9396,-96.8429,-2.0,18.91,11111222 
TABS,ioos:station:wmo:42048:1,2009-12-01T04:30:00Z,27.9396,-96.8429,-2.0,18.87,11111222 
TABS,ioos:station:wmo:42048:1,2009-12-01T05:00:00Z,27.9396,-96.8429,-2.0,18.84,11111222 
TABS,ioos:station:wmo:42048:1,2009-12-01T05:30:00Z,27.9396,-96.8429,-2.0,18.81,11111222 
TABS,ioos:station:wmo:42048:1,2009-12-01T06:00:00Z,27.9396,-96.8429,-2.0,18.84,11111222 
TABS,ioos:station:wmo:42048:1,2009-12-01T06:30:00Z,27.9396,-96.8429,-2.0,18.86,11111222 
TABS,ioos:station:wmo:42048:1,2009-12-01T07:00:00Z,27.9396,-96.8429,-2.0,18.85,11111222 
TABS,ioos:station:wmo:42048:1,2009-12-01T07:30:00Z,27.9396,-96.8429,-2.0,18.82,11111222 
TABS,ioos:station:wmo:42048:1,2009-12-01T08:00:00Z,27.9396,-96.8429,-2.0,18.84,11111222 
TABS,ioos:station:wmo:42048:1,2009-12-01T08:30:00Z,27.9396,-96.8429,-2.0,18.85,11111222 
TABS,ioos:station:wmo:42048:1,2009-12-01T09:00:00Z,27.9396,-96.8429,-2.0,18.85,11111222 
TABS,ioos:station:wmo:42048:1,2009-12-01T09:30:00Z,27.9396,-96.8429,-2.0,18.85,11111222 
TABS,ioos:station:wmo:42048:1,2009-12-01T10:00:00Z,27.9396,-96.8429,-2.0,18.85,11111222 
TABS,ioos:station:wmo:42048:1,2009-12-01T10:30:00Z,27.9396,-96.8429,-2.0,18.89,11111222 
TABS,ioos:station:wmo:42048:1,2009-12-01T11:00:00Z,27.9396,-96.8429,-2.0,18.92,11111222 
TABS,ioos:station:wmo:42048:1,2009-12-01T11:30:00Z,27.9396,-96.8429,-2.0,18.98,11111222 
TABS,ioos:station:wmo:42048:1,2009-12-01T12:00:00Z,27.9396,-96.8429,-2.0,18.99,11111222 
TABS,ioos:station:wmo:42048:1,2009-12-01T12:30:00Z,27.9396,-96.8429,-2.0,18.97,11111222 
TABS,ioos:station:wmo:42048:1,2009-12-01T13:00:00Z,27.9396,-96.8429,-2.0,18.96,11111222 
TABS,ioos:station:wmo:42048:1,2009-12-01T13:30:00Z,27.9396,-96.8429,-2.0,18.93,11111222 
TABS,ioos:station:wmo:42048:1,2009-12-01T14:00:00Z,27.9396,-96.8429,-2.0,18.95,11111222 
TABS,ioos:station:wmo:42048:1,2009-12-01T14:30:00Z,27.9396,-96.8429,-2.0,18.94,11111222 
TABS,ioos:station:wmo:42048:1,2009-12-01T15:00:00Z,27.9396,-96.8429,-2.0,18.94,11111222 
TABS,ioos:station:wmo:42048:1,2009-12-01T15:30:00Z,27.9396,-96.8429,-2.0,18.95,11111222 
TABS,ioos:station:wmo:42048:1,2009-12-01T16:00:00Z,27.9396,-96.8429,-2.0,18.97,11111222 
TABS,ioos:station:wmo:42048:1,2009-12-01T16:30:00Z,27.9396,-96.8429,-2.0,18.97,11111222 
TABS,ioos:station:wmo:42048:1,2009-12-01T17:00:00Z,27.9396,-96.8429,-2.0,18.95,11111222 
TABS,ioos:station:wmo:42048:1,2009-12-01T17:30:00Z,27.9396,-96.8429,-2.0,18.94,11111222 
TABS,ioos:station:wmo:42048:1,2009-12-01T18:00:00Z,27.9396,-96.8429,-2.0,18.93,11111222 
TABS,ioos:station:wmo:42048:1,2009-12-01T18:30:00Z,27.9396,-96.8429,-2.0,18.93,11111222 
TABS,ioos:station:wmo:42048:1,2009-12-01T19:00:00Z,27.9396,-96.8429,-2.0,18.92,11111222 
TABS,ioos:station:wmo:42048:1,2009-12-01T19:30:00Z,27.9396,-96.8429,-2.0,18.93,11111222 
TABS,ioos:station:wmo:42048:1,2009-12-01T20:00:00Z,27.9396,-96.8429,-2.0,18.89,11111222 
TABS,ioos:station:wmo:42048:1,2009-12-01T20:30:00Z,27.9396,-96.8429,-2.0,18.82,11111222 
TABS,ioos:station:wmo:42048:1,2009-12-01T21:00:00Z,27.9396,-96.8429,-2.0,18.76,11111222 
TABS,ioos:station:wmo:42048:1,2009-12-01T21:30:00Z,27.9396,-96.8429,-2.0,18.71,11111222 
TABS,ioos:station:wmo:42048:1,2009-12-01T22:00:00Z,27.9396,-96.8429,-2.0,18.69,11111222 
TABS,ioos:station:wmo:42048:1,2009-12-01T22:30:00Z,27.9396,-96.8429,-2.0,18.67,11111222 
TABS,ioos:station:wmo:42048:1,2009-12-01T23:00:00Z,27.9396,-96.8429,-2.0,18.67,11111222 
TABS,ioos:station:wmo:42048:1,2009-12-01T23:30:00Z,27.9396,-96.8429,-2.0,18.66,11111222 
TABS,ioos:station:wmo:42048:1,2009-12-02T00:00:00Z,27.9396,-96.8429,-2.0,18.61,11111222 
TABS,ioos:station:wmo:42048:1,2009-12-02T00:30:00Z,27.9396,-96.8429,-2.0,18.56,11111222 
TABS,ioos:station:wmo:42048:1,2009-12-02T01:00:00Z,27.9396,-96.8429,-2.0,18.53,11111222 
TABS,ioos:station:wmo:42048:1,2009-12-02T01:30:00Z,27.9396,-96.8429,-2.0,18.5,11111222 
TABS,ioos:station:wmo:42048:1,2009-12-02T02:00:00Z,27.9396,-96.8429,-2.0,18.46,11111222 
TABS,ioos:station:wmo:42048:1,2009-12-02T02:30:00Z,27.9396,-96.8429,-2.0,18.44,11111222 
TABS,ioos:station:wmo:42048:1,2009-12-02T03:00:00Z,27.9396,-96.8429,-2.0,18.43,11111222 
TABS,ioos:station:wmo:42048:1,2009-12-02T03:30:00Z,27.9396,-96.8429,-2.0,18.42,11111222 
TABS,ioos:station:wmo:42048:1,2009-12-02T04:00:00Z,27.9396,-96.8429,-2.0,18.4,11111222 
TABS,ioos:station:wmo:42048:1,2009-12-02T04:30:00Z,27.9396,-96.8429,-2.0,18.38,11111222 
TABS,ioos:station:wmo:42048:1,2009-12-02T05:00:00Z,27.9396,-96.8429,-2.0,18.38,11111222 
TABS,ioos:station:wmo:42048:1,2009-12-02T05:30:00Z,27.9396,-96.8429,-2.0,18.39,11111222 
TABS,ioos:station:wmo:42048:1,2009-12-02T06:00:00Z,27.9396,-96.8429,-2.0,18.39,11111222 
TABS,ioos:station:wmo:42048:1,2009-12-02T06:30:00Z,27.9396,-96.8429,-2.0,18.38,11111222 
TABS,ioos:station:wmo:42048:1,2009-12-02T07:00:00Z,27.9396,-96.8429,-2.0,18.39,11111222 
TABS,ioos:station:wmo:42048:1,2009-12-02T07:30:00Z,27.9396,-96.8429,-2.0,18.37,11111222 
TABS,ioos:station:wmo:42048:1,2009-12-02T08:00:00Z,27.9396,-96.8429,-2.0,18.39,11111222 
TABS,ioos:station:wmo:42048:1,2009-12-02T08:30:00Z,27.9396,-96.8429,-2.0,18.36,11111222 
TABS,ioos:station:wmo:42048:1,2009-12-02T09:00:00Z,27.9396,-96.8429,-2.0,18.32,11111222 
TABS,ioos:station:wmo:42048:1,2009-12-02T09:30:00Z,27.9396,-96.8429,-2.0,18.29,11111222 
TABS,ioos:station:wmo:42048:1,2009-12-02T10:00:00Z,27.9396,-96.8429,-2.0,18.25,11111222 
TABS,ioos:station:wmo:42048:1,2009-12-02T10:30:00Z,27.9396,-96.8429,-2.0,18.23,11111222 
TABS,ioos:station:wmo:42048:1,2009-12-02T11:00:00Z,27.9396,-96.8429,-2.0,18.22,11111222 
TABS,ioos:station:wmo:42048:1,2009-12-02T11:30:00Z,27.9396,-96.8429,-2.0,18.19,11111222 
TABS,ioos:station:wmo:42048:1,2009-12-02T12:00:00Z,27.9396,-96.8429,-2.0,18.16,11111222 
TABS,ioos:station:wmo:42048:1,2009-12-02T12:30:00Z,27.9396,-96.8429,-2.0,18.15,11111222 
TABS,ioos:station:wmo:42048:1,2009-12-02T13:00:00Z,27.9396,-96.8429,-2.0,18.11,11111222 
TABS,ioos:station:wmo:42048:1,2009-12-02T13:30:00Z,27.9396,-96.8429,-2.0,18.08,11111222 
TABS,ioos:station:wmo:42048:1,2009-12-02T14:00:00Z,27.9396,-96.8429,-2.0,18.06,11111222 
TABS,ioos:station:wmo:42048:1,2009-12-02T14:30:00Z,27.9396,-96.8429,-2.0,18.04,11111222 
TABS,ioos:station:wmo:42048:1,2009-12-02T15:00:00Z,27.9396,-96.8429,-2.0,18.04,11111222 
TABS,ioos:station:wmo:42048:1,2009-12-02T15:30:00Z,27.9396,-96.8429,-2.0,18.05,11111222 
TABS,ioos:station:wmo:42048:1,2009-12-02T16:00:00Z,27.9396,-96.8429,-2.0,18.04,11111222 
TABS,ioos:station:wmo:42048:1,2009-12-02T16:30:00Z,27.9396,-96.8429,-2.0,18.04,11111222 
TABS,ioos:station:wmo:42048:1,2009-12-02T17:00:00Z,27.9396,-96.8429,-2.0,18.06,11111222 
TABS,ioos:station:wmo:42048:1,2009-12-02T17:30:00Z,27.9396,-96.8429,-2.0,18.07,11111222 
TABS,ioos:station:wmo:42048:1,2009-12-02T18:00:00Z,27.9396,-96.8429,-2.0,18.09,11111222 
TABS,ioos:station:wmo:42048:1,2009-12-02T18:30:00Z,27.9396,-96.8429,-2.0,18.11,11111222 
TABS,ioos:station:wmo:42048:1,2009-12-02T19:00:00Z,27.9396,-96.8429,-2.0,18.12,11111222 
TABS,ioos:station:wmo:42048:1,2009-12-02T19:30:00Z,27.9396,-96.8429,-2.0,18.14,11111222 
TABS,ioos:station:wmo:42048:1,2009-12-02T20:00:00Z,27.9396,-96.8429,-2.0,18.15,11111222 
TABS,ioos:station:wmo:42048:1,2009-12-02T20:30:00Z,27.9396,-96.8429,-2.0,18.17,11111222 
TABS,ioos:station:wmo:42048:1,2009-12-02T21:00:00Z,27.9396,-96.8429,-2.0,18.18,11111222 
TABS,ioos:station:wmo:42048:1,2009-12-02T21:30:00Z,27.9396,-96.8429,-2.0,18.19,11111222 
TABS,ioos:station:wmo:42048:1,2009-12-02T22:00:00Z,27.9396,-96.8429,-2.0,18.19,11111222 
TABS,ioos:station:wmo:42048:1,2009-12-02T22:30:00Z,27.9396,-96.8429,-2.0,18.17,11111222 
TABS,ioos:station:wmo:42048:1,2009-12-02T23:00:00Z,27.9396,-96.8429,-2.0,18.16,11111222 
TABS,ioos:station:wmo:42048:1,2009-12-02T23:30:00Z,27.9396,-96.8429,-2.0,18.15,11111222 
TABS,ioos:station:wmo:42048:1,2009-12-03T00:00:00Z,27.9396,-96.8429,-2.0,18.15,11111222 
TABS,ioos:station:wmo:42048:1,2009-12-03T00:30:00Z,27.9396,-96.8429,-2.0,18.15,11111222 
TABS,ioos:station:wmo:42048:1,2009-12-03T01:00:00Z,27.9396,-96.8429,-2.0,18.12,11111222 
TABS,ioos:station:wmo:42048:1,2009-12-03T01:30:00Z,27.9396,-96.8429,-2.0,18.11,11111222 
TABS,ioos:station:wmo:42048:1,2009-12-03T02:00:00Z,27.9396,-96.8429,-2.0,18.11,11111222 
TABS,ioos:station:wmo:42048:1,2009-12-03T02:30:00Z,27.9396,-96.8429,-2.0,18.11,11111222 
TABS,ioos:station:wmo:42048:1,2009-12-03T03:00:00Z,27.9396,-96.8429,-2.0,18.11,11111222 
TABS,ioos:station:wmo:42048:1,2009-12-03T03:30:00Z,27.9396,-96.8429,-2.0,18.09,11111222 
TABS,ioos:station:wmo:42048:1,2009-12-03T04:00:00Z,27.9396,-96.8429,-2.0,18.07,11111222 
TABS,ioos:station:wmo:42048:1,2009-12-03T04:30:00Z,27.9396,-96.8429,-2.0,18.06,11111222 
TABS,ioos:station:wmo:42048:1,2009-12-03T05:00:00Z,27.9396,-96.8429,-2.0,18.05,11111222 
TABS,ioos:station:wmo:42048:1,2009-12-03T05:30:00Z,27.9396,-96.8429,-2.0,18.03,11111222 
TABS,ioos:station:wmo:42048:1,2009-12-03T06:00:00Z,27.9396,-96.8429,-2.0,18.02,11111222 
TABS,ioos:station:wmo:42048:1,2009-12-03T06:30:00Z,27.9396,-96.8429,-2.0,18.0,11111222 
TABS,ioos:station:wmo:42048:1,2009-12-03T07:00:00Z,27.9396,-96.8429,-2.0,18.0,11111222 
TABS,ioos:station:wmo:42048:1,2009-12-03T07:30:00Z,27.9396,-96.8429,-2.0,18.0,11111222 
TABS,ioos:station:wmo:42048:1,2009-12-03T08:00:00Z,27.9396,-96.8429,-2.0,17.96,11111222 
TABS,ioos:station:wmo:42048:1,2009-12-03T08:30:00Z,27.9396,-96.8429,-2.0,17.95,11111222 
TABS,ioos:station:wmo:42048:1,2009-12-03T09:00:00Z,27.9396,-96.8429,-2.0,17.94,11111222 
TABS,ioos:station:wmo:42048:1,2009-12-03T09:30:00Z,27.9396,-96.8429,-2.0,17.92,11111222 
TABS,ioos:station:wmo:42048:1,2009-12-03T10:00:00Z,27.9396,-96.8429,-2.0,17.9,11111222 
TABS,ioos:station:wmo:42048:1,2009-12-03T10:30:00Z,27.9396,-96.8429,-2.0,17.87,11111222 
TABS,ioos:station:wmo:42048:1,2009-12-03T11:00:00Z,27.9396,-96.8429,-2.0,17.86,11111222 
TABS,ioos:station:wmo:42048:1,2009-12-03T11:30:00Z,27.9396,-96.8429,-2.0,17.86,11111222 
TABS,ioos:station:wmo:42048:1,2009-12-03T12:00:00Z,27.9396,-96.8429,-2.0,17.87,11111222 
TABS,ioos:station:wmo:42048:1,2009-12-03T12:30:00Z,27.9396,-96.8429,-2.0,17.88,11111222 
TABS,ioos:station:wmo:42048:1,2009-12-03T13:00:00Z,27.9396,-96.8429,-2.0,17.89,11111222 
TABS,ioos:station:wmo:42048:1,2009-12-03T13:30:00Z,27.9396,-96.8429,-2.0,17.91,11111222 
TABS,ioos:station:wmo:42048:1,2009-12-03T14:00:00Z,27.9396,-96.8429,-2.0,17.9,11111222 
TABS,ioos:station:wmo:42048:1,2009-12-03T14:30:00Z,27.9396,-96.8429,-2.0,17.9,11111222 
TABS,ioos:station:wmo:42048:1,2009-12-03T15:00:00Z,27.9396,-96.8429,-2.0,17.91,11111222 
TABS,ioos:station:wmo:42048:1,2009-12-03T15:30:00Z,27.9396,-96.8429,-2.0,17.9,11111222 
TABS,ioos:station:wmo:42048:1,2009-12-03T16:00:00Z,27.9396,-96.8429,-2.0,17.9,11111222 
TABS,ioos:station:wmo:42048:1,2009-12-03T16:30:00Z,27.9396,-96.8429,-2.0,17.91,11111222 
TABS,ioos:station:wmo:42048:1,2009-12-03T17:00:00Z,27.9396,-96.8429,-2.0,17.92,11111222 
TABS,ioos:station:wmo:42048:1,2009-12-03T17:30:00Z,27.9396,-96.8429,-2.0,17.92,11111222 
TABS,ioos:station:wmo:42048:1,2009-12-03T18:00:00Z,27.9396,-96.8429,-2.0,17.93,11111222 
TABS,ioos:station:wmo:42048:1,2009-12-03T18:30:00Z,27.9396,-96.8429,-2.0,17.94,11111222 
TABS,ioos:station:wmo:42048:1,2009-12-03T19:00:00Z,27.9396,-96.8429,-2.0,17.95,11111222 
TABS,ioos:station:wmo:42048:1,2009-12-03T19:30:00Z,27.9396,-96.8429,-2.0,17.95,11111222 
TABS,ioos:station:wmo:42048:1,2009-12-03T20:00:00Z,27.9396,-96.8429,-2.0,17.94,11111222 
TABS,ioos:station:wmo:42048:1,2009-12-03T20:30:00Z,27.9396,-96.8429,-2.0,17.94,11111222 
TABS,ioos:station:wmo:42048:1,2009-12-03T21:00:00Z,27.9396,-96.8429,-2.0,17.94,11111222 
TABS,ioos:station:wmo:42048:1,2009-12-03T21:30:00Z,27.9396,-96.8429,-2.0,17.94,11111222 
TABS,ioos:station:wmo:42048:1,2009-12-03T22:00:00Z,27.9396,-96.8429,-2.0,17.94,11111222 
TABS,ioos:station:wmo:42048:1,2009-12-03T22:30:00Z,27.9396,-96.8429,-2.0,17.94,11111222 
TABS,ioos:station:wmo:42048:1,2009-12-03T23:00:00Z,27.9396,-96.8429,-2.0,17.94,11111222 
TABS,ioos:station:wmo:42048:1,2009-12-03T23:30:00Z,27.9396,-96.8429,-2.0,17.95,11111222 
TABS,ioos:station:wmo:42048:1,2009-12-04T00:00:00Z,27.9396,-96.8429,-2.0,17.95,11111222 
TABS,ioos:station:wmo:42048:1,2009-12-04T00:30:00Z,27.9396,-96.8429,-2.0,17.94,11111222 
TABS,ioos:station:wmo:42048:1,2009-12-04T01:00:00Z,27.9396,-96.8429,-2.0,17.93,11111222 
TABS,ioos:station:wmo:42048:1,2009-12-04T02:30:00Z,27.9396,-96.8429,-2.0,18.0,2 
TABS,ioos:station:wmo:42048:1,2009-12-04T03:00:00Z,27.9396,-96.8429,-2.0,18.0,2 
TABS,ioos:station:wmo:42048:1,2009-12-04T03:30:00Z,27.9396,-96.8429,-2.0,18.0,2 
TABS,ioos:station:wmo:42048:1,2009-12-04T04:00:00Z,27.9396,-96.8429,-2.0,18.0,2 
TABS,ioos:station:wmo:42048:1,2009-12-04T04:30:00Z,27.9396,-96.8429,-2.0,17.8,2 
TABS,ioos:station:wmo:42048:1,2009-12-04T05:00:00Z,27.9396,-96.8429,-2.0,17.8,2 
TABS,ioos:station:wmo:42048:1,2009-12-04T05:30:00Z,27.9396,-96.8429,-2.0,17.8,2 
TABS,ioos:station:wmo:42048:1,2009-12-04T06:00:00Z,27.9396,-96.8429,-2.0,18.0,2 
TABS,ioos:station:wmo:42048:1,2009-12-04T06:30:00Z,27.9396,-96.8429,-2.0,17.8,2 
TABS,ioos:station:wmo:42048:1,2009-12-04T07:00:00Z,27.9396,-96.8429,-2.0,17.8,2 
TABS,ioos:station:wmo:42048:1,2009-12-04T08:00:00Z,27.9396,-96.8429,-2.0,17.71,11111222 
TABS,ioos:station:wmo:42048:1,2009-12-04T08:30:00Z,27.9396,-96.8429,-2.0,17.69,11111222 
TABS,ioos:station:wmo:42048:1,2009-12-04T09:00:00Z,27.9396,-96.8429,-2.0,17.66,11111222 
TABS,ioos:station:wmo:42048:1,2009-12-04T09:30:00Z,27.9396,-96.8429,-2.0,17.63,11111222 
TABS,ioos:station:wmo:42048:1,2009-12-04T10:00:00Z,27.9396,-96.8429,-2.0,17.6,11111222 
TABS,ioos:station:wmo:42048:1,2009-12-04T10:30:00Z,27.9396,-96.8429,-2.0,17.57,11111222 
TABS,ioos:station:wmo:42048:1,2009-12-04T11:00:00Z,27.9396,-96.8429,-2.0,17.54,11111222 
TABS,ioos:station:wmo:42048:1,2009-12-04T11:30:00Z,27.9396,-96.8429,-2.0,17.52,11111222 
TABS,ioos:station:wmo:42048:1,2009-12-04T12:00:00Z,27.9396,-96.8429,-2.0,17.49,11111222 
TABS,ioos:station:wmo:42048:1,2009-12-04T12:30:00Z,27.9396,-96.8429,-2.0,17.47,11111222 
TABS,ioos:station:wmo:42048:1,2009-12-04T13:00:00Z,27.9396,-96.8429,-2.0,17.44,11111222 
TABS,ioos:station:wmo:42048:1,2009-12-04T13:30:00Z,27.9396,-96.8429,-2.0,17.4,11111222 
TABS,ioos:station:wmo:42048:1,2009-12-04T14:00:00Z,27.9396,-96.8429,-2.0,17.33,11111222 
TABS,ioos:station:wmo:42048:1,2009-12-04T14:30:00Z,27.9396,-96.8429,-2.0,17.28,11111222 
TABS,ioos:station:wmo:42048:1,2009-12-04T15:00:00Z,27.9396,-96.8429,-2.0,17.26,11111222 
TABS,ioos:station:wmo:42048:1,2009-12-04T15:30:00Z,27.9396,-96.8429,-2.0,17.23,11111222 
TABS,ioos:station:wmo:42048:1,2009-12-04T16:00:00Z,27.9396,-96.8429,-2.0,17.22,11111222 
TABS,ioos:station:wmo:42048:1,2009-12-04T16:30:00Z,27.9396,-96.8429,-2.0,17.19,11111222 
TABS,ioos:station:wmo:42048:1,2009-12-04T17:00:00Z,27.9396,-96.8429,-2.0,17.18,11111222 
TABS,ioos:station:wmo:42048:1,2009-12-04T17:30:00Z,27.9396,-96.8429,-2.0,17.18,11111222 
TABS,ioos:station:wmo:42048:1,2009-12-04T18:00:00Z,27.9396,-96.8429,-2.0,17.17,11111222 
TABS,ioos:station:wmo:42048:1,2009-12-04T18:30:00Z,27.9396,-96.8429,-2.0,17.13,11111222 
TABS,ioos:station:wmo:42048:1,2009-12-04T19:00:00Z,27.9396,-96.8429,-2.0,17.09,11111222 
TABS,ioos:station:wmo:42048:1,2009-12-04T19:30:00Z,27.9396,-96.8429,-2.0,17.07,11111222 
TABS,ioos:station:wmo:42048:1,2009-12-04T20:00:00Z,27.9396,-96.8429,-2.0,17.08,11111222 
TABS,ioos:station:wmo:42048:1,2009-12-04T20:30:00Z,27.9396,-96.8429,-2.0,17.06,11111222 
TABS,ioos:station:wmo:42048:1,2009-12-04T21:00:00Z,27.9396,-96.8429,-2.0,17.01,11111222 
TABS,ioos:station:wmo:42048:1,2009-12-04T21:30:00Z,27.9396,-96.8429,-2.0,17.0,11111222 
TABS,ioos:station:wmo:42048:1,2009-12-04T22:00:00Z,27.9396,-96.8429,-2.0,16.97,11111222 
TABS,ioos:station:wmo:42048:1,2009-12-04T22:30:00Z,27.9396,-96.8429,-2.0,16.95,11111222 
TABS,ioos:station:wmo:42048:1,2009-12-04T23:00:00Z,27.9396,-96.8429,-2.0,16.89,11111222 
TABS,ioos:station:wmo:42048:1,2009-12-04T23:30:00Z,27.9396,-96.8429,-2.0,16.85,11111222 
TABS,ioos:station:wmo:42048:1,2009-12-05T00:00:00Z,27.9396,-96.8429,-2.0,16.85,11111222 
TABS,ioos:station:wmo:42048:1,2009-12-05T00:30:00Z,27.9396,-96.8429,-2.0,16.85,11111222 
TABS,ioos:station:wmo:42048:1,2009-12-05T01:00:00Z,27.9396,-96.8429,-2.0,16.83,11111222 
TABS,ioos:station:wmo:42048:1,2009-12-05T01:30:00Z,27.9396,-96.8429,-2.0,16.82,11111222 
TABS,ioos:station:wmo:42048:1,2009-12-05T02:00:00Z,27.9396,-96.8429,-2.0,16.8,11111222 
TABS,ioos:station:wmo:42048:1,2009-12-05T02:30:00Z,27.9396,-96.8429,-2.0,16.78,11111222 
TABS,ioos:station:wmo:42048:1,2009-12-05T03:00:00Z,27.9396,-96.8429,-2.0,16.77,11111222 
TABS,ioos:station:wmo:42048:1,2009-12-05T03:30:00Z,27.9396,-96.8429,-2.0,16.77,11111222 
TABS,ioos:station:wmo:42048:1,2009-12-05T04:00:00Z,27.9396,-96.8429,-2.0,16.75,11111222 
TABS,ioos:station:wmo:42048:1,2009-12-05T04:30:00Z,27.9396,-96.8429,-2.0,16.71,11111222 
TABS,ioos:station:wmo:42048:1,2009-12-05T05:00:00Z,27.9396,-96.8429,-2.0,16.71,11111222 
TABS,ioos:station:wmo:42048:1,2009-12-05T05:30:00Z,27.9396,-96.8429,-2.0,16.68,11111222 
TABS,ioos:station:wmo:42048:1,2009-12-05T06:00:00Z,27.9396,-96.8429,-2.0,16.68,11111222 
TABS,ioos:station:wmo:42048:1,2009-12-05T06:30:00Z,27.9396,-96.8429,-2.0,16.64,11111222 
TABS,ioos:station:wmo:42048:1,2009-12-05T07:00:00Z,27.9396,-96.8429,-2.0,16.6,11111222 
TABS,ioos:station:wmo:42048:1,2009-12-05T07:30:00Z,27.9396,-96.8429,-2.0,16.57,11111222 
TABS,ioos:station:wmo:42048:1,2009-12-05T08:00:00Z,27.9396,-96.8429,-2.0,16.57,11111222 
TABS,ioos:station:wmo:42048:1,2009-12-05T08:30:00Z,27.9396,-96.8429,-2.0,16.53,11111222 
TABS,ioos:station:wmo:42048:1,2009-12-05T09:00:00Z,27.9396,-96.8429,-2.0,16.5,11111222 
TABS,ioos:station:wmo:42048:1,2009-12-05T09:30:00Z,27.9396,-96.8429,-2.0,16.5,11111222 
TABS,ioos:station:wmo:42048:1,2009-12-05T10:00:00Z,27.9396,-96.8429,-2.0,16.46,11111222 
TABS,ioos:station:wmo:42048:1,2009-12-05T10:30:00Z,27.9396,-96.8429,-2.0,16.46,11111222 
TABS,ioos:station:wmo:42048:1,2009-12-05T11:00:00Z,27.9396,-96.8429,-2.0,16.43,11111222 
TABS,ioos:station:wmo:42048:1,2009-12-05T11:30:00Z,27.9396,-96.8429,-2.0,16.44,11111222 
TABS,ioos:station:wmo:42048:1,2009-12-05T12:00:00Z,27.9396,-96.8429,-2.0,16.45,11111222 
TABS,ioos:station:wmo:42048:1,2009-12-05T12:30:00Z,27.9396,-96.8429,-2.0,16.43,11111222 
TABS,ioos:station:wmo:42048:1,2009-12-05T13:00:00Z,27.9396,-96.8429,-2.0,16.42,11111222 
TABS,ioos:station:wmo:42048:1,2009-12-05T13:30:00Z,27.9396,-96.8429,-2.0,16.43,11111222 
TABS,ioos:station:wmo:42048:1,2009-12-05T14:00:00Z,27.9396,-96.8429,-2.0,16.43,11111222 
TABS,ioos:station:wmo:42048:1,2009-12-05T14:30:00Z,27.9396,-96.8429,-2.0,16.4,11111222 
TABS,ioos:station:wmo:42048:1,2009-12-05T15:00:00Z,27.9396,-96.8429,-2.0,16.39,11111222 
TABS,ioos:station:wmo:42048:1,2009-12-05T15:30:00Z,27.9396,-96.8429,-2.0,16.38,11111222 
TABS,ioos:station:wmo:42048:1,2009-12-05T16:00:00Z,27.9396,-96.8429,-2.0,16.37,11111222 
TABS,ioos:station:wmo:42048:1,2009-12-05T16:30:00Z,27.9396,-96.8429,-2.0,16.37,11111222 
TABS,ioos:station:wmo:42048:1,2009-12-05T17:00:00Z,27.9396,-96.8429,-2.0,16.37,11111222 
TABS,ioos:station:wmo:42048:1,2009-12-05T17:30:00Z,27.9396,-96.8429,-2.0,16.36,11111222 
TABS,ioos:station:wmo:42048:1,2009-12-05T18:00:00Z,27.9396,-96.8429,-2.0,16.36,11111222 
TABS,ioos:station:wmo:42048:1,2009-12-05T18:30:00Z,27.9396,-96.8429,-2.0,16.35,11111222 
TABS,ioos:station:wmo:42048:1,2009-12-05T19:00:00Z,27.9396,-96.8429,-2.0,16.33,11111222 
TABS,ioos:station:wmo:42048:1,2009-12-05T19:30:00Z,27.9396,-96.8429,-2.0,16.34,11111222 
TABS,ioos:station:wmo:42048:1,2009-12-05T20:00:00Z,27.9396,-96.8429,-2.0,16.32,11111222 
TABS,ioos:station:wmo:42048:1,2009-12-05T20:30:00Z,27.9396,-96.8429,-2.0,16.3,11111222 
TABS,ioos:station:wmo:42048:1,2009-12-05T21:00:00Z,27.9396,-96.8429,-2.0,16.24,11111222 
TABS,ioos:station:wmo:42048:1,2009-12-05T21:30:00Z,27.9396,-96.8429,-2.0,16.21,11111222 
TABS,ioos:station:wmo:42048:1,2009-12-05T22:00:00Z,27.9396,-96.8429,-2.0,16.27,11111222 
TABS,ioos:station:wmo:42048:1,2009-12-05T22:30:00Z,27.9396,-96.8429,-2.0,16.18,11111222 
TABS,ioos:station:wmo:42048:1,2009-12-05T23:00:00Z,27.9396,-96.8429,-2.0,16.1,11111222 
TABS,ioos:station:wmo:42048:1,2009-12-05T23:30:00Z,27.9396,-96.8429,-2.0,16.04,11111222 
TABS,ioos:station:wmo:42048:1,2009-12-06T00:00:00Z,27.9396,-96.8429,-2.0,16.04,11111222 
TABS,ioos:station:wmo:42048:1,2009-12-06T00:30:00Z,27.9396,-96.8429,-2.0,16.04,11111222 
TABS,ioos:station:wmo:42048:1,2009-12-06T01:00:00Z,27.9396,-96.8429,-2.0,16.02,11111222 
TABS,ioos:station:wmo:42048:1,2009-12-06T01:30:00Z,27.9396,-96.8429,-2.0,16.02,11111222 
TABS,ioos:station:wmo:42048:1,2009-12-06T02:00:00Z,27.9396,-96.8429,-2.0,16.04,11111222 
TABS,ioos:station:wmo:42048:1,2009-12-06T02:30:00Z,27.9396,-96.8429,-2.0,16.09,11111222 
TABS,ioos:station:wmo:42048:1,2009-12-06T03:00:00Z,27.9396,-96.8429,-2.0,16.09,11111222 
TABS,ioos:station:wmo:42048:1,2009-12-06T03:30:00Z,27.9396,-96.8429,-2.0,16.13,11111222 
TABS,ioos:station:wmo:42048:1,2009-12-06T04:00:00Z,27.9396,-96.8429,-2.0,16.14,11111222 
TABS,ioos:station:wmo:42048:1,2009-12-06T04:30:00Z,27.9396,-96.8429,-2.0,16.19,11111222 
TABS,ioos:station:wmo:42048:1,2009-12-06T05:00:00Z,27.9396,-96.8429,-2.0,16.18,11111222 
TABS,ioos:station:wmo:42048:1,2009-12-06T05:30:00Z,27.9396,-96.8429,-2.0,16.16,11111222 
TABS,ioos:station:wmo:42048:1,2009-12-06T06:00:00Z,27.9396,-96.8429,-2.0,16.14,11111222 
TABS,ioos:station:wmo:42048:1,2009-12-06T06:30:00Z,27.9396,-96.8429,-2.0,16.1,11111222 
TABS,ioos:station:wmo:42048:1,2009-12-06T07:00:00Z,27.9396,-96.8429,-2.0,16.07,11111222 
TABS,ioos:station:wmo:42048:1,2009-12-06T07:30:00Z,27.9396,-96.8429,-2.0,16.05,11111222 
TABS,ioos:station:wmo:42048:1,2009-12-06T08:00:00Z,27.9396,-96.8429,-2.0,16.03,11111222 
TABS,ioos:station:wmo:42048:1,2009-12-06T08:30:00Z,27.9396,-96.8429,-2.0,16.03,11111222 
TABS,ioos:station:wmo:42048:1,2009-12-06T09:00:00Z,27.9396,-96.8429,-2.0,16.02,11111222 
TABS,ioos:station:wmo:42048:1,2009-12-06T09:30:00Z,27.9396,-96.8429,-2.0,16.01,11111222 
TABS,ioos:station:wmo:42048:1,2009-12-06T10:00:00Z,27.9396,-96.8429,-2.0,16.01,11111222 
TABS,ioos:station:wmo:42048:1,2009-12-06T10:30:00Z,27.9396,-96.8429,-2.0,16.01,11111222 
TABS,ioos:station:wmo:42048:1,2009-12-06T11:00:00Z,27.9396,-96.8429,-2.0,16.01,11111222 
TABS,ioos:station:wmo:42048:1,2009-12-06T11:30:00Z,27.9396,-96.8429,-2.0,16.02,11111222 
TABS,ioos:station:wmo:42048:1,2009-12-06T12:00:00Z,27.9396,-96.8429,-2.0,16.04,11111222 
TABS,ioos:station:wmo:42048:1,2009-12-06T12:30:00Z,27.9396,-96.8429,-2.0,16.03,11111222 
TABS,ioos:station:wmo:42048:1,2009-12-06T13:00:00Z,27.9396,-96.8429,-2.0,16.03,11111222 
TABS,ioos:station:wmo:42048:1,2009-12-06T13:30:00Z,27.9396,-96.8429,-2.0,16.04,11111222 
TABS,ioos:station:wmo:42048:1,2009-12-06T14:00:00Z,27.9396,-96.8429,-2.0,16.04,11111222 
TABS,ioos:station:wmo:42048:1,2009-12-06T14:30:00Z,27.9396,-96.8429,-2.0,16.03,11111222 
TABS,ioos:station:wmo:42048:1,2009-12-06T15:00:00Z,27.9396,-96.8429,-2.0,16.03,11111222 
TABS,ioos:station:wmo:42048:1,2009-12-06T15:30:00Z,27.9396,-96.8429,-2.0,16.03,11111222 